Weather in Yuzhno-Stepnoy

Russia / Chelyabinsk Oblast     52°49′16″N   60°40′50″E
temp.,
°C
wind,
m/s
gust,
m/s
humid.,
%
clouds,
%
prec.,
mm/h
press.,
hPa
HPBL,
m
18 october, mon
mon1823:00+9sw334799 0.0 102241
02:00+9sw3550100 0.0 102277
05:00+9sw4749100 0.0 1021125
08:00+8ssw41049100 0.0 1021178
11:00+12sw61039100 0.0 1020423
14:00+15sw7102998 0.0 1019825
17:00+14ssw5932100 0.0 1018321
20:00+11s4940100 0.0 1018141
19 october, tue
tue1923:00+10ssw51339100 0.0 1017254
02:00+8ssw41245100 0.0 1017225
05:00+7ssw41148100 0.0 1016194
08:00+7s41047100 0.0 1015176
11:00+12ssw593288 0.0 1013422
14:00+14sw682484 0.0 10121035
17:00+13ssw362853 0.0 1011138
20:00+9ssw223596 0.0 101111
20 october, wed
wed2023:00+9s333794 0.0 101027
02:00+8ssw3437100 0.0 100962
05:00+9s333898 0.0 100852
08:00+8s3338100 0.0 100742
11:00+11ssw343499 0.0 1006286
14:00+13s3440100 0.0 1004724
17:00+8nw2285100 1.3 1003123
20:00+8se4789100 1.6 1002434
21 october, thu
thu2123:00+7sse5989100 3.4 999488
02:00+6ssw6879100 0.1 999678
05:00+5s5667100 0.1 9981021
08:00+4sse3372100 0.0 998574
11:00+5nne227094 0.1 999694
14:00+6n446289 0.1 10001166
17:00+5nnw7877100 0.3 1002841
20:00+2nnw71195100 0.1 1006495
22 october, fri
fri2223:00+2nnw61095100 0.1 1008452
02:00+2nnw6993100 0.1 1010510
05:00+2nw5784100 0.1 1011494
08:00+1w4778100 0.0 1012250
11:00+3wsw6946100 0.0 1011534
14:00+4wsw91172100 0.0 1010730
17:00+2sw81689100 1.8 1009629
20:00+4wsw91786100 0.3 1009652